Location: Unspecified
(0.0000°N, 0.0000°E)
Time: 12:58:10
(UTC+00:00)

COSMOS-2414 - Pass Details

Date: 13 June 2023
Orbit: 908 x 965 km, 82.9° (Epoch: 24 September)

Event Time Altitude Azimuth Distance (km) Brightness Sun altitude
Rises 03:51:00 0° 25° (NNE) 3,562 9.7 -29.4°
Reaches altitude 10° 03:54:10 10° 41° (NE) 2,612 9.1 -28.7°
Maximum altitude 03:58:23 20° 87° (E) 1,968 8.2 -27.7°
Drops below altitude 10° 04:02:36 10° 133° (SE) 2,599 8.5 -26.8°
Sets 04:05:42 0° 149° (SSE) 3,538 9.0 -26.1°
